Overview Statistics Trail Chart Weather Telemetry Raw packets
 

This is the latest recevied weather packets stored in our database for station/object KD8DNS. If no packets are shown the sender has not sent any weather packets the latest 10 day(s).

<< 5 6 7 8 9 10 11 >>
Time Temp. Humidity Pressure Rain* Wind** Luminosity Snow
1788635843 27.78° C 79% 1016.5 hPa 0 mm - 653 W/m² -
1788635541 27.22° C 79% 1016.3 hPa 0 mm - 547 W/m² -
1788635240 27.22° C 77% 1016.6 hPa 0 mm - 333 W/m² -
1788634939 26.67° C 79% 1016.7 hPa 0 mm - 487 W/m² -
1788634638 26.11° C 82% 1016.8 hPa 0 mm - 552 W/m² -
1788634333 25.56° C 83% 1016.7 hPa 0 mm - 382 W/m² -
1788634033 26.11° C 85% 1016.9 hPa 0 mm - 304 W/m² -
1788633732 25.56° C 87% 1016.7 hPa 0 mm - 292 W/m² -
1788633426 25.56° C 86% 1016.7 hPa 0 mm - 262 W/m² -
1788633122 25.56° C 85% 1016.7 hPa 0 mm - 255 W/m² -
1788632820 25.56° C 85% 1016.7 hPa 0 mm - 147 W/m² -
1788632515 25.56° C 89% 1016.9 hPa 0 mm - 280 W/m² -
1788632211 25° C 90% 1016.8 hPa 0 mm - 261 W/m² -
1788631909 25° C 90% 1017.1 hPa 0 mm - 212 W/m² -
1788631604 25° C 93% 1016.8 hPa 0 mm - 640 W/m² -
1788631300 24.44° C 91% 1016.8 hPa 0 mm - 282 W/m² -
1788630998 24.44° C 94% 1016.7 hPa 0 mm - 488 W/m² -
1788630694 24.44° C 93% 1017 hPa 0 mm - 438 W/m² -
1788630390 24.44° C 91% 1016.7 hPa 0 mm - 202 W/m² -
1788630085 25.56° C 87% 1017 hPa 0 mm - 115 W/m² -
1788629780 28.33° C 78% 1017 hPa 0 mm - 73 W/m² -
1788629476 29.44° C 67% 1017 hPa 0 mm - 80 W/m² -
1788629169 30° C 65% 1016.8 hPa 0 mm - 327 W/m² -
1788628864 30° C 64% 1016.7 hPa 0 mm - 805 W/m² -
1788628561 30° C 65% 1016.7 hPa 0 mm - 316 W/m² -

* Rain latest hour (hover to see other rain measurements)
** Current wind speed in m/s (hover to see current wind gust speed)